Weather History for KMOB - May, 2013

Change the Weather History Date:

Saturday, May 25, 2013

  Actual Average Record
Temperature  
Mean Temperature 74 °F 76 °F  
Max Temperature 88 °F 86 °F 97 °F (1962)
Min Temperature 59 °F 66 °F 53 °F (1979)
Cooling Degree Days 9 11  
Month to date cooling degree days 154 214  
Year to date cooling degree days 291 373  
Growing Degree Days 24 (Base 50)    
Moisture  
Dew Point 51 °F    
Average Humidity 52    
Maximum Humidity 78    
Minimum Humidity 25    
Precipitation  
Precipitation 0.00 in 0.17 in 3.38 in (1909)
Month to date precipitation 7.78 4.09  
Year to date precipitation 28.24 25.79  
Sea Level Pressure  
Sea Level Pressure 30.19 in    
Wind  
Wind Speed 5 mph (East)    
Max Wind Speed 10 mph    
Max Gust Speed 15 mph    
Visibility 10 miles    
Events      
T = Trace of Precipitation, MM = Missing Value Source: NWS Daily Summary

Daily Weather History Graph

Daily Weather History Graph

Search for Another Location

Airport or City:

Trip Planner

Search our weather history database for the weather conditions in past years. The results will help you decide how hot, cold, wet, or windy it might be!

Date:

Astronomy

May. 25, 2013 Rise Set
Actual Time 5:52 AM CDT 7:47 PM CDT
Civil Twilight 5:25 AM CDT 8:14 PM CDT
Nautical Twilight 4:53 AM CDT 8:46 PM CDT
Astronomical Twilight 4:18 AM CDT 9:21 PM CDT
Moon 8:35 PM CDT (5/25) 6:18 AM CDT (5/25)
Length of Visible Light 14h 48m
Length of Day
13h 54m
Full, 100% of the Moon is Illuminated
May 25
Full
May 31
Last Quarter
Jun 8
New
Jun 16
First Quarter
Jun 23
Full

Hourly Weather History & Observations

Time (CDT) Temp. Dew Point Humidity Pressure Visibility Wind Dir Wind Speed Gust Speed Precip Events Conditions
12:56 AM 64.9 °F 52.0 °F 63% 30.17 in 10.0 mi NNE 4.6 mph - N/A   Clear
1:56 AM 63.0 °F 52.0 °F 67% 30.17 in 10.0 mi NE 8.1 mph - N/A   Clear
2:56 AM 62.1 °F 52.0 °F 70% 30.17 in 10.0 mi NE 6.9 mph - N/A   Clear
3:56 AM 61.0 °F 51.1 °F 70% 30.17 in 10.0 mi NE 10.4 mph - N/A   Clear
4:56 AM 60.1 °F 50.0 °F 69% 30.19 in 10.0 mi NE 8.1 mph - N/A   Clear
5:56 AM 59.0 °F 48.9 °F 69% 30.21 in 10.0 mi NE 8.1 mph - N/A   Scattered Clouds
6:56 AM 60.1 °F 46.9 °F 62% 30.22 in 10.0 mi NE 9.2 mph - N/A   Scattered Clouds
7:56 AM 66.0 °F 48.0 °F 52% 30.24 in 10.0 mi NE 8.1 mph - N/A   Scattered Clouds
8:56 AM 71.1 °F 48.0 °F 44% 30.25 in 10.0 mi ENE 9.2 mph - N/A   Partly Cloudy
9:56 AM 75.9 °F 48.0 °F 37% 30.25 in 10.0 mi East 6.9 mph - N/A   Partly Cloudy
10:56 AM 80.1 °F 48.9 °F 34% 30.25 in 10.0 mi East 4.6 mph - N/A   Partly Cloudy
11:56 AM 82.0 °F 48.0 °F 30% 30.24 in 10.0 mi ENE 3.5 mph - N/A   Partly Cloudy
12:56 PM 82.9 °F 46.0 °F 27% 30.22 in 10.0 mi Variable 3.5 mph - N/A   Partly Cloudy
1:56 PM 86.0 °F 48.0 °F 27% 30.19 in 10.0 mi ESE 5.8 mph - N/A   Partly Cloudy
2:56 PM 88.0 °F 48.0 °F 25% 30.18 in 10.0 mi SSE 8.1 mph - N/A   Partly Cloudy
3:56 PM 86.0 °F 46.9 °F 26% 30.17 in 10.0 mi Calm Calm - N/A   Partly Cloudy
4:56 PM 84.0 °F 44.1 °F 25% 30.16 in 10.0 mi SSW 5.8 mph - N/A   Partly Cloudy
5:56 PM 84.0 °F 46.0 °F 26% 30.17 in 10.0 mi SSW 3.5 mph - N/A   Clear
6:56 PM 79.0 °F 57.0 °F 47% 30.16 in 10.0 mi South 8.1 mph - N/A   Clear
7:56 PM 73.9 °F 57.0 °F 55% 30.16 in 10.0 mi South 3.5 mph - N/A   Clear
8:56 PM 68.0 °F 57.0 °F 68% 30.17 in 10.0 mi Calm Calm - N/A   Clear
9:56 PM 69.1 °F 57.0 °F 65% 30.19 in 10.0 mi South 3.5 mph - N/A   Clear
10:56 PM 64.9 °F 57.9 °F 78% 30.19 in 10.0 mi Calm Calm - N/A   Clear
11:56 PM 64.9 °F 57.0 °F 75% 30.18 in 10.0 mi Calm Calm - N/A   Clear